Regional Weather Roundup
Issued by NWS

Home | Current Version | Previous Version | Text Only | Print | Product List | Glossary On
Versions: 1 2 3 4 5 6 7 8 9 10 11 12 13 14 15 16 17 18 19 20 21 22 23 24 25 26 27 28 29 30 31 32 33 34 35 36 37 38 39 40 41 42 43 44 45 46 47 48 49 50
000
ASUS43 KDTX 191801
RWRMI
MICHIGAN HOURLY REGIONAL WEATHER ROUNDUP
NATIONAL WEATHER SERVICE DETROIT/PONTIAC MI
100 PM EST MON FEB 19 2018

NOTE: "FAIR" INDICATES FEW OR NO CLOUDS BELOW 12,000 FEET WITH NO
SIGNIFICANT WEATHER AND/OR OBSTRUCTION TO VISIBILITY.

MIZ047>049-052>055-059>063-066>070-074>076-081>083-191900-
SOUTHEAST LOWER MICHIGAN

CITY           SKY/WX    TMP DP  RH WIND       PRES   REMARKS
ADRIAN         LGT RAIN  39  39 100 S6        29.96F VSB 1/4 WCI  35
6HR MIN TEMP:  33; 6HR MAX TEMP:  40; 6HR PCP:  0.27;

ALMA           LGT SNOW  39  39  99 E3        29.92F
6HR MIN TEMP:  34; 6HR MAX TEMP:  39;

ANN ARBOR      RAIN      38  38 100 CALM      29.96F VSB 1/4
BAD AXE        CLOUDY    37  34  89 S7        29.98F WCI  31
6HR MIN TEMP:  33; 6HR MAX TEMP:  37;

CARO           CLOUDY    42  38  86 S6        29.97F
DETROIT CITY   LGT RAIN  41  40  96 S5        29.99F FOG
6HR MIN TEMP:  34; 6HR MAX TEMP:  41; 6HR PCP:  0.03;

DETROIT        RAIN      41  41 100 SE3       29.99F VSB 3/4
6HR MIN TEMP:  34; 6HR MAX TEMP:  41; 6HR PCP:  0.08;

FLINT          CLOUDY    38  37  97 S7        29.96F WCI  33
6HR MIN TEMP:  36; 6HR MAX TEMP:  39; 6HR PCP: TRACE;

GROSSE ILE     LGT RAIN  38  37  98 CALM      29.97F VSB 3/4
6HR MIN TEMP:  34; 6HR MAX TEMP:  38; 6HR PCP:  0.11;

HILLSDALE      RAIN      43  43 100 S10       29.91F
HOWELL         LGT RAIN  39  39 100 SE6       29.94F
6HR MIN TEMP:  36; 6HR MAX TEMP:  39;


CITY           SKY/WX    TMP DP  RH WIND       PRES   REMARKS
JACKSON        CLOUDY    41  41 100 E7        29.90F FOG
6HR MIN TEMP:  37; 6HR MAX TEMP:  42; 6HR PCP:  0.05;

LAMBERTVILLE   LGT RAIN  48  47  97 S6        29.97F
6HR MIN TEMP:  36; 6HR MAX TEMP:  48;

LANSING        LGT RAIN  41  41 100 SE6       29.91F FOG
6HR MIN TEMP:  37; 6HR MAX TEMP:  41; 6HR PCP:  0.05;

LAPEER         CLOUDY    40  38  93 S6        29.98F
6HR MIN TEMP:  34; 6HR MAX TEMP:  40;

MASON          RAIN      40  37  88 SE6       29.91F
6HR MIN TEMP:  37; 6HR MAX TEMP:  40;

MONROE         RAIN      44  43  93 S7        29.97F
6HR MIN TEMP:  34; 6HR MAX TEMP:  44; 6HR PCP:  0.17;

MT. CLEMENS    LGT RAIN  37  37 100 CALM      29.98F VSB 3/4
6HR MIN TEMP:  33; 6HR MAX TEMP:  37; 6HR PCP: TRACE;

PONTIAC        LGT RAIN  39  39 100 S5        29.97F FOG
6HR MIN TEMP:  34; 6HR MAX TEMP:  39; 6HR PCP:  0.02;

PORT HOPE        N/A     39  34  82 SW6       29.96S WCI  35
6HR MIN TEMP:  34; 6HR MAX TEMP:  39;

PORT HURON     RAIN      37  36  93 S6        30.01F VSB 1/2 WCI  33
TRI CITIES     CLOUDY    41  37  86 CALM      29.95F
6HR MIN TEMP:  37; 6HR MAX TEMP:  41;

MIDLAND        CLOUDY    41  37  87 CALM      29.95F
6HR MIN TEMP:  36; 6HR MAX TEMP:  41;

TROY           LGT SNOW  40  38  95 CALM      30.00F VSB 1
SAGINAW HB     CLOUDY    39  36  87 CALM      29.94F FOG
$$
MIZ043>046-050>051-056>058-064>065-071>073-077>080-191900-
SOUTHWEST LOWER MICHIGAN

CITY           SKY/WX    TMP DP  RH WIND       PRES   REMARKS
BATTLE CREEK   RAIN      41  41 100 CALM      29.90F VSB 1
6HR MIN TEMP:  36; 6HR MAX TEMP:  41; 6HR PCP:  0.13;

BENTON HARBOR  LGT RAIN  43  42  97 SE8       29.85F
6HR MIN TEMP:  40; 6HR MAX TEMP:  43; 6HR PCP:  0.24;

BIG RAPIDS     CLOUDY    40  35  82 CALM      29.90F HAZE
6HR MIN TEMP:  32; 6HR MAX TEMP:  41;

COLDWATER      LGT RAIN  44  44 100 S8        29.89F
6HR MIN TEMP:  38; 6HR MAX TEMP:  44;

HOLLAND        CLOUDY    42  40  92 E6        29.87F FOG
6HR MIN TEMP:  39; 6HR MAX TEMP:  43; 6HR PCP:  0.04;

GRAND RAPIDS   RAIN      41  39  93 E8        29.89F VSB 1/2
6HR MIN TEMP:  38; 6HR MAX TEMP:  43; 6HR PCP:  0.03;

IONIA          RAIN      39  39 100 E3        29.90F VSB 1/4
6HR MIN TEMP:  36; 6HR MAX TEMP:  39;

KALAMAZOO      RAIN      42  41  96 SE5       29.88F VSB 1/2
6HR MIN TEMP:  37; 6HR MAX TEMP:  42; 6HR PCP:  0.15;

LUDINGTON      CLOUDY    42  37  83 SE3       29.89F
6HR MIN TEMP:  38; 6HR MAX TEMP:  44;

MARSHALL       RAIN      41  41  99 CALM      29.90F
6HR MIN TEMP:  37; 6HR MAX TEMP:  41; 6HR PCP:  0.04;

MOUNT PLEASANT CLOUDY    40  37  89 E3        29.92F FOG
6HR MIN TEMP:  34; 6HR MAX TEMP:  40;

MUSKEGON       LGT RAIN  41  37  86 E5        29.88F FOG
6HR MIN TEMP:  38; 6HR MAX TEMP:  43; 6HR PCP: TRACE;

SOUTH HAVEN    LGT RAIN  43  42  95 E7        29.85F
$$
MIZ016>042-191900-
NORTHERN LOWER MICHIGAN

CITY           SKY/WX    TMP DP  RH WIND       PRES   REMARKS
ALPENA         CLOUDY    38  31  76 SW3       29.97S
6HR MIN TEMP:  31; 6HR MAX TEMP:  38;

BEAVER ISLAND  CLOUDY    36  30  79 N3        29.97R
6HR MIN TEMP:  32; 6HR MAX TEMP:  39;

BELLAIRE       CLOUDY    41  33  72 CALM      29.95S
6HR MIN TEMP:  33; 6HR MAX TEMP:  42;

CADILLAC       CLOUDY    41  33  73 E5        29.91F
CHARLEVOIX     CLOUDY    38  31  74 CALM      29.98S
6HR MIN TEMP:  34; 6HR MAX TEMP:  42;

FRANKFORT      CLOUDY    42  33  69 CALM      29.93S
GAYLORD        CLOUDY    37  31  78 S5        29.93R WCI  33
6HR MIN TEMP:  30; 6HR MAX TEMP:  37;

GRAYLING       PTSUNNY   38  31  76 CALM      29.92S
6HR MIN TEMP:  31; 6HR MAX TEMP:  38;

HARBOR SPRINGS CLOUDY    39  30  68 CALM      29.96R
HOUGHTON LAKE  CLOUDY    40  32  73 SE6       29.95R
6HR MIN TEMP:  32; 6HR MAX TEMP:  40;

MANISTEE       LGT RAIN  42  34  73 E3        29.91F
OSCODA         CLOUDY    39  30  71 SW6       29.97S WCI  35
6HR MIN TEMP:  32; 6HR MAX TEMP:  39;

PELLSTON       CLOUDY    40  30  67 CALM      29.97R
6HR MIN TEMP:  27; 6HR MAX TEMP:  41;

ROGERS CITY    CLOUDY    37  30  75 CALM      29.98R
TRAVERSE CITY  CLOUDY    41  31  67 N5        29.93R
6HR MIN TEMP:  37; 6HR MAX TEMP:  42;

$$
MIZ007>008-015-191900-
EASTERN UPPER MICHIGAN

CITY           SKY/WX    TMP DP  RH WIND       PRES   REMARKS
KINROSS        CLOUDY    36  29  75 N8        29.96R WCI  30
6HR MIN TEMP:  28; 6HR MAX TEMP:  36;

MACKINAC ISLAN CLOUDY    35  29  78 NE3       29.97R
6HR MIN TEMP:  32; 6HR MAX TEMP:  37;

NEWBERRY       CLOUDY    32  31  95 N6        29.97R FOG     WCI  27
6HR MIN TEMP:  29; 6HR MAX TEMP:  34;

S. S. MARIE    CLOUDY    37  29  72 NE3       29.97R
6HR MIN TEMP:  33; 6HR MAX TEMP:  37;

MUNISING         N/A     27  25  92 N17       30.02R WCI  14
6HR MIN TEMP:  27; 6HR MAX TEMP:  32;

$$
MIZ004>006-011>014-085-191900-
CENTRAL UPPER MICHIGAN

CITY           SKY/WX    TMP DP  RH WIND       PRES   REMARKS
MANISTIQUE     CLOUDY    30  28  92 N9G17     29.98R WCI  22
6HR MIN TEMP:  29; 6HR MAX TEMP:  33;

ESCANABA       CLOUDY    27  21  78 N15G21    29.98S WCI  15
6HR MIN TEMP:  25; 6HR MAX TEMP:  31;

MENOMINEE      CLOUDY    31  24  75 NE14      29.96S WCI  21
6HR MIN TEMP:  29; 6HR MAX TEMP:  36;

SAWYER-GWINN   LGT SNOW  21  18  86 N20       29.99S WCI   6
$$
MIZ001>003-009>011-084-191900-
WESTERN UPPER MICHIGAN

CITY           SKY/WX    TMP DP  RH WIND       PRES   REMARKS
IRON MOUNTAIN  CLOUDY    23  16  74 N10       29.96S WCI  12
6HR MIN TEMP:  23; 6HR MAX TEMP:  29;

HOUGHTON       SNOW      18  11  74 NE8       30.05S VSB 1/2 WCI   8
6HR MIN TEMP:  18; 6HR MAX TEMP:  19; 6HR PCP: TRACE;

COPPER HARBOR    N/A     18  13  80 E22G29    30.10R WCI   1
6HR MIN TEMP:  18; 6HR MAX TEMP:  19;

IRONWOOD       LGT SNOW  16  11  80 NE14G20   30.02F WCI   2
6HR MIN TEMP:  16; 6HR MAX TEMP:  19; 6HR PCP:  0.03;

$$

ABBREVIATIONS USED IN REMARKS
   TC - TEMPERATURE IN CELSIUS
  WCI - WIND CHILL INDEX
   HX - HEAT INDEX
  VSB - VISIBILITY




USA.gov is the U.S. government's official web portal to all federal, state and local government web resources and services.